Flag Weather past 2 weeks in Grand Prairie, Texas, U.S.A.

Now
50 °F

Sunny.


Feels Like: 48 °F
Forecast: 40 / 58 °F
Wind: 6 mph from Northeast

Location: Arlington Municipal Airport

Current Time: Nov 27, 2014 at 11:30:42 AM

Latest Report: Nov 27, 2014 at 10:53 AM


Visibility: 10 mi

Pressure: 30.53 "Hg

Humidity: 32%

Dew point: 21 °F

Location of Grand PrairieLocation

Historic Weather in Grand Prairie — Graph

°F

Grand Prairie temperature yesterday

Maximum temperature yesterday: 67 °F (at 1:53 PM)
Minimum temperature yesterday: 38 °F (at 5:53 AM)
Average temperature yesterday: 51 °F

Past Weeks' High & Low Weather Summary

 TemperatureHumidityPressure
High79 °F (Nov 23, 2:53 PM)93% (Nov 16, 7:53 AM)30.61 "Hg (Nov 16, 7:53 AM)
Low27 °F (Nov 17, 7:53 AM)17% (Nov 18, 2:53 PM)29.39 "Hg (Nov 23, 12:53 PM)
Average48 °F57%30.16 "Hg
* Reported Nov 12 9:53 AM — Nov 27 9:53 AM, Grand Prairie, Weather by CustomWeather, © 2014

Note: Actual official high and low records may vary slightly from our data, if they occured in-between our weather recording intervals... More about our weather records

Advertising

Grand Prairie weather history for previous 24 hours

 ConditionsComfort  
Time TempWeatherWind HumidityBarometerVisibility
9:53 AM
Nov 27
48 °FSunny.5 mph37%30.55 "Hg8 mi
8:53 AM45 °FSunny.6 mph45%30.54 "Hg10 mi
7:53 AM42 °FSunny.No wind53%30.52 "Hg10 mi
6:53 AM41 °FClear.8 mph55%30.50 "Hg10 mi
5:53 AM41 °FClear.6 mph55%30.48 "Hg10 mi
4:53 AM43 °FClear.9 mph51%30.47 "Hg10 mi
3:53 AM45 °FClear.12 mph48%30.46 "Hg10 mi
2:53 AM46 °FClear.13 mph46%30.45 "Hg10 mi
1:53 AM48 °FClear.13 mph43%30.42 "Hg10 mi
12:53 AM48 °FClear.8 mph46%30.42 "Hg10 mi
11:53 PM
Nov 26
50 °FClear.10 mph46%30.38 "Hg10 mi
10:53 PM47 °FClear.6 mph56%30.37 "Hg10 mi
9:53 PM51 °FClear.9 mph52%30.36 "Hg10 mi
8:53 PM53 °FClear.9 mph48%30.32 "Hg10 mi
7:53 PM54 °FClear.9 mph49%30.29 "Hg10 mi
6:53 PM50 °FClear.5 mph54%30.28 "Hg10 mi
5:53 PM55 °FClear.3 mph44%30.25 "Hg10 mi
4:53 PM63 °FSunny.9 mph31%30.22 "Hg10 mi
3:53 PM66 °FSunny.14 mph28%30.19 "Hg10 mi
2:53 PM66 °FMild.13 mph27%30.18 "Hg10 mi
1:53 PM67 °FSunny.12 mph25%30.16 "Hg7 mi
11:53 AM63 °FSunny.12 mph24%30.16 "Hg10 mi
Weather by CustomWeather, © 2014

See weather overviewHow to use our weather pages